Location: Fort Worth, Tx
(32.7431°N, 97.3695°W)
Time: 10:31:34
(UTC-04:00)

Courier 1B - Pass Details

Date: 24 February 2024
Orbit: 962 x 1208 km, 28.3° (Epoch: 24 April)

Event Time Altitude Azimuth Distance (km) Brightness Sun altitude
Exits shadow 07:16:19 11° 256° (WSW) 2,676 9.2 -10.7°
Maximum altitude 07:21:28 27° 203° (SSW) 1,875 8.8 -9.6°
Drops below altitude 10° 07:27:14 10° 148° (SSE) 2,908 10.6 -8.4°
Sets 07:30:30 0° 137° (SE) 3,908 11.5 -7.7°
